CW2378 Weather Reports


time (UTC)temp
C
wind
direction
speed
KPH
gust
KPH
rain 1hr
cm
rain 24hr
cm
rain mn
cm
humidity
%
barometer
mb
20260504235005 22 178 8.0 22.5 0.00 0.00 0.00 52 1012.6
20260504234005 22 163 11.3 19.3 0.00 0.00 0.00 51 1012.8
20260504233501 22 188 9.7 19.3 0.00 0.00 0.00 52 1012.9
20260504233004 22 168 11.3 20.9 0.00 0.00 0.00 51 1013.0
20260504232459 22 137 11.3 20.9 0.00 0.00 0.00 50 1013.0
20260504232004 22 158 12.9 20.9 0.00 0.00 0.00 49 1013.0
20260504231500 22 159 9.7 20.9 0.00 0.00 0.00 48 1013.0
20260504230501 23 183 9.7 19.3 0.00 0.00 0.00 48 1013.2
20260504230006 23 217 8.0 22.5 0.00 0.00 0.00 48 1013.1
20260504225505 23 117 12.9 22.5 0.00 0.00 0.00 47 1013.0
20260504225005 23 162 11.3 19.3 0.00 0.00 0.00 47 1013.1
20260504224504 23 172 12.9 19.3 0.00 0.00 0.00 46 1013.2
20260504224004 23 168 12.9 19.3 0.00 0.00 0.00 45 1013.3
20260504223504 23 148 12.9 20.9 0.00 0.00 0.00 45 1013.4
20260504223005 23 177 12.9 20.9 0.00 0.00 0.00 45 1013.3
20260504222459 23 173 11.3 19.3 0.00 0.00 0.00 45 1013.4
20260504222005 24 176 11.3 25.7 0.00 0.00 0.00 44 1013.4
20260504221506 24 187 9.7 25.7 0.00 0.00 0.00 44 1013.5
20260504221003 24 152 11.3 19.3 0.00 0.00 0.00 44 1013.9
20260504220500 24 207 11.3 19.3 0.00 0.00 0.00 43 1013.8
20260504220006 24 170 9.7 20.9 0.00 0.00 0.00 44 1013.7
20260504215459 24 109 14.5 20.9 0.00 0.00 0.00 42 1013.6
20260504215003 25 170 12.9 20.9 0.00 0.00 0.00 42 1013.6
20260504214000 25 120 11.3 22.5 0.00 0.00 0.00 41 1013.7
20260504213000 25 198 12.9 19.3 0.00 0.00 0.00 40 1013.8
20260504212459 25 180 9.7 22.5 0.00 0.00 0.00 42 1013.6
20260504212000 25 178 12.9 22.5 0.00 0.00 0.00 42 1014.2
20260504211500 26 172 12.9 17.7 0.00 0.00 0.00 41 1014.0
20260504211004 26 186 9.7 19.3 0.00 0.00 0.00 39 1013.9
20260504210459 26 186 11.3 20.9 0.00 0.00 0.00 38 1013.7
20260504210000 26 203 14.5 20.9 0.00 0.00 0.00 38 1013.9
20260504205004 25 171 12.9 20.9 0.00 0.00 0.00 39 1014.2
20260504204500 26 187 11.3 19.3 0.00 0.00 0.00 38 1014.3
20260504204001 26 128 12.9 20.9 0.00 0.00 0.00 37 1014.4
20260504203459 26 136 14.5 20.9 0.00 0.00 0.00 37 1014.4
20260504203001 26 211 11.3 17.7 0.00 0.00 0.00 37 1014.4
20260504202459 26 140 9.7 22.5 0.00 0.00 0.00 37 1014.5
20260504201959 25 198 11.3 22.5 0.00 0.00 0.00 36 1014.6
20260504201500 26 210 14.5 20.9 0.00 0.00 0.00 37 1014.8
20260504200459 26 168 9.7 20.9 0.00 0.00 0.00 38 1014.9
20260504200000 26 207 9.7 19.3 0.00 0.00 0.00 37 1015.0
20260504194459 26 179 11.3 19.3 0.00 0.00 0.00 36 1015.1
20260504194000 26 163 12.9 22.5 0.00 0.00 0.00 37 1015.5
20260504193459 25 198 12.9 27.4 0.00 0.00 0.00 37 1015.4
20260504193225 26 211 17.7 27.4 0.00 0.00 0.00 36 1015.4
20260504192500 26 172 8.0 20.9 0.00 0.00 0.00 41 1015.5
20260504192000 25 155 9.7 19.3 0.00 0.00 0.00 40 1015.6
20260504191459 25 182 11.3 17.7 0.00 0.00 0.00 37 1015.6
20260504190959 25 204 11.3 20.9 0.00 0.00 0.00 38 1015.4
20260504185500 26 213 9.7 22.5 0.00 0.00 0.00 38 1015.8
20260504185000 25 146 9.7 22.5 0.00 0.00 0.00 39 1015.8
20260504184501 25 187 9.7 22.5 0.00 0.00 0.00 39 1015.9
20260504184000 25 212 9.7 24.1 0.00 0.00 0.00 39 1016.0
20260504183000 25 192 9.7 25.7 0.00 0.00 0.00 40 1016.0
20260504182500 25 179 12.9 25.7 0.00 0.00 0.00 40 1016.2
20260504181458 25 173 9.7 22.5 0.00 0.00 0.00 41 1016.2
20260504181002 25 230 11.3 22.5 0.00 0.00 0.00 40 1016.1
20260504180459 25 195 11.3 24.1 0.00 0.00 0.00 41 1016.1
20260504180002 25 171 11.3 22.5 0.00 0.00 0.00 42 1016.1
20260504175005 25 226 9.7 20.9 0.00 0.00 0.00 43 1016.2
20260504174500 25 221 12.9 20.9 0.00 0.00 0.00 39 1016.3
20260504174004 25 188 9.7 17.7 0.00 0.00 0.00 42 1016.3
20260504173500 25 189 8.0 14.5 0.00 0.00 0.00 42 1016.3
20260504173005 25 193 9.7 22.5 0.00 0.00 0.00 42 1016.2
20260504172500 25 169 12.9 24.1 0.00 0.00 0.00 43 1016.1
20260504171004 25 220 12.9 24.1 0.00 0.00 0.00 42 1016.2
20260504170504 25 188 11.3 19.3 0.00 0.00 0.00 42 1016.2
20260504151000 22 137 4.8 14.5 0.00 0.00 0.00 51 1016.9
20260504150500 22 192 3.2 14.5 0.00 0.00 0.00 49 1016.8
20260504141004 19 216 3.2 6.4 0.00 0.00 0.00 60 1016.9
20260504140459 19 216 3.2 6.4 0.00 0.00 0.00 61 1017.0
20260504110459 12 201 0.0 0.0 0.00 0.00 0.00 85 1016.1
20260504100459 12 201 0.0 0.0 0.00 0.00 0.00 82 1016.2
20260504081959 13 202 0.0 0.0 0.00 0.00 0.00 80 1016.1
20260504081458 13 202 0.0 0.0 0.00 0.00 0.00 80 1016.0
20260504081000 13 202 0.0 0.0 0.00 0.00 0.00 79 1016.2
20260504080459 13 202 0.0 0.0 0.00 0.00 0.00 79 1016.2
20260504050500 16 202 3.2 4.8 0.00 0.00 0.00 70 1018.0
20260504050005 16 202 3.2 4.8 0.00 0.00 0.00 69 1018.0
20260504045505 16 202 1.6 4.8 0.00 0.00 0.00 68 1017.9
20260504044504 16 202 3.2 6.4 0.00 0.00 0.00 68 1018.0
20260504043500 16 202 4.8 8.0 0.00 0.00 0.00 68 1018.1
20260504043002 16 202 3.2 8.0 0.00 0.00 0.00 67 1018.2
20260504041004 17 201 4.8 11.3 0.00 0.00 0.00 67 1018.3
20260504040500 17 215 3.2 11.3 0.00 0.00 0.00 66 1018.3
20260504040005 17 213 8.0 11.3 0.00 0.00 0.00 67 1018.2
20260504035004 17 225 4.8 9.7 0.00 0.00 0.00 68 1018.2
20260504034504 17 202 4.8 9.7 0.00 0.00 0.00 67 1018.1
20260504034005 17 204 4.8 9.7 0.00 0.00 0.00 67 1018.1
20260504033500 17 203 6.4 9.7 0.00 0.00 0.00 67 1018.2
20260504033006 17 205 4.8 8.0 0.00 0.00 0.00 67 1018.2
20260504032004 16 209 6.4 11.3 0.00 0.00 0.00 67 1018.2
20260504031005 17 217 0.0 0.0 0.00 0.00 0.00 65 1018.2
20260504030003 17 217 1.6 4.8 0.00 0.00 0.00 65 1018.2
20260504025500 17 217 3.2 6.4 0.00 0.00 0.00 64 1018.1
20260504025004 17 217 3.2 6.4 0.00 0.00 0.00 64 1018.1
20260504024501 17 217 3.2 6.4 0.00 0.00 0.00 63 1018.0
20260504024005 17 221 1.6 3.2 0.00 0.00 0.00 62 1017.9
20260504023500 17 221 0.0 4.8 0.00 0.00 0.00 62 1017.8
20260504023003 17 221 1.6 4.8 0.00 0.00 0.00 62 1017.8
20260504022500 18 221 0.0 4.8 0.00 0.00 0.00 60 1017.9
20260504022004 18 221 3.2 4.8 0.00 0.00 0.00 60 1017.8
20260504015504 18 293 1.6 6.4 0.00 0.00 0.00 60 1017.5
20260504015004 18 317 1.6 3.2 0.00 0.00 0.00 59 1017.5
20260504014501 18 317 0.0 0.0 0.00 0.00 0.00 58 1017.5
20260504014004 18 317 0.0 0.0 0.00 0.00 0.00 56 1017.5
20260504013500 18 317 0.0 0.0 0.00 0.00 0.00 55 1017.4
20260504012500 19 317 0.0 4.8 0.00 0.00 0.00 53 1017.3
20260504012004 19 317 1.6 4.8 0.00 0.00 0.00 52 1017.3
20260504011500 19 318 0.0 0.0 0.00 0.00 0.00 51 1017.2
20260504011004 20 318 0.0 1.6 0.00 0.00 0.00 50 1017.1
20260504010502 20 318 0.0 1.6 0.00 0.00 0.00 49 1017.1
20260504010005 20 318 1.6 3.2 0.00 0.00 0.00 49 1017.2
20260504005500 20 318 1.6 3.2 0.00 0.00 0.00 48 1017.2
20260504005004 21 318 0.0 0.0 0.00 0.00 0.00 47 1017.0
20260504004500 21 318 0.0 1.6 0.00 0.00 0.00 45 1017.0
20260504004005 21 318 0.0 3.2 0.00 0.00 0.00 44 1016.9
20260504003459 21 318 0.0 3.2 0.00 0.00 0.00 44 1017.0
20260504003005 21 318 1.6 3.2 0.00 0.00 0.00 43 1016.9
20260504002504 21 318 0.0 6.4 0.00 0.00 0.00 43 1017.0
20260504002009 22 318 3.2 6.4 0.00 0.00 0.00 41 1017.0
20260504001500 22 288 3.2 8.0 0.00 0.00 0.00 42 1016.8
20260504001004 22 286 3.2 9.7 0.00 0.00 0.00 41 1016.9
20260504000500 22 331 4.8 9.7 0.00 0.00 0.00 41 1016.9
20260504000005 22 273 3.2 9.7 0.00 0.00 0.00 40 1016.8
20260503235501 22 257 3.2 9.7 0.00 0.00 0.00 41 1016.8